User: anonymous   Login
Location: Aalen
(48.8330°N, 10.1000°E)
Time: 14:45:44
(UTC+02:00)
Language:

Courier 1B Rocket - Orbit

View from above orbital plane
View from above orbital plane
View from above satellite
View from above satellite

Ground track
Ground track

The orbit data is extracted from the following two-line orbital elements,

1 00059U 60013B   21213.85490485  .00000094  00000-0  84356-5 0  9990
2 00059  28.2474 270.0544 0189204 130.7658 230.9473 13.52986531  1887
Epoch (UTC): 01 August 2021 20:31:03
Eccentricity: 0.0189204
inclination: 28.2474°
perigee height: 920 km
apogee height: 1202 km
right ascension of ascending node: 270.0544°
argument of perigee: 130.7658°
revolutions per day: 13.52986531
mean anomaly at epoch: 230.9473°
orbit number at epoch: 188

The dashed part of the orbit path shows where the satellite is in the earth's shadow,  

DLR